Location: Newark
(51.2000°N, 58.6167°E)
Time: 08:47:39
(UTC+00:00)

Envisat - Pass Details

Date: 06 October 2020
Orbit: 764 x 766 km, 98.1° (Epoch: 23 October)

Event Time Altitude Azimuth Distance (km) Brightness Sun altitude
Rises 01:37:11 0° 19° (NNE) 3,245 6.5 -6.7°
Reaches altitude 10° 01:39:39 10° 28° (NNE) 2,313 5.9 -6.3°
Maximum altitude 01:44:25 39° 96° (E) 1,147 4.8 -5.5°
Drops below altitude 10° 01:49:08 10° 165° (SSE) 2,297 5.7 -4.8°
Sets 01:51:34 0° 173° (S) 3,218 6.4 -4.4°
